Find Starlink 37134

NORAD ID: 68281 Int'l Des: 2026-055 Owner: SPXS Country: US Constellation: starlink operational
LEOCIRCULAR

リアルタイム位置

3D地球を読み込み中...

Starlink 37134について

説明を読み込み中...

次回通過

Passes for default location (London). Set your location on the main map for personalized predictions.

高度履歴

Loading altitude history...

軌道要素

1 68281U 26055V 26124.83335647 .00027788 00000-0 92336-3 0 9995
2 68281 53.1604 59.1569 0001002 76.3442 56.4594 15.31012915 5961
Epoch: May 4, 2026 • Age: 4 hours

現在のステータス

高度 487.4 km
速度 7.62 km/s
衛星直下点 -41.92°S, 63.82°E
打ち上げ日 Mar 19, 2026
運用期間 0.1 years
タイプ internet

技術仕様

分類 Payload
質量 575.00 kg
乾燥質量 530.00 kg
総質量 575.00 kg
長さ 0.30 m
直径 4.10 m
スパン 29.00 m
形状 Box + pan
製造者 SPXS
バスタイプ Starlink V2MO
フェーズステータス In Orbit
所有者/国 SPXS/US

Most Searched